Satellite-Ground Cal/Val Region Overpasses Predictions

Prediction of Satellite NPP Overpassing Cal/Val Region: PacNW

Region Location: (Latitude: 10.00, Longitude: 139.50) to (Latitude: 22.70, Longitude: 165.60).

Table of predicted overpasses for the next 14.0 days since TLE Epoch: 3/25/2017
Interval Starting Time Starting Location Ending Time Ending Location
1 03/26/2017 02:45:19 ( 10.06, 158.35) 03/26/2017 02:48:54 ( 22.68, 155.35)
2 03/26/2017 15:17:11 ( 22.68, 155.60) 03/26/2017 15:20:47 ( 10.00, 152.58)
3 03/27/2017 02:26:16 ( 10.01, 163.12) 03/27/2017 02:29:52 ( 22.70, 160.11)
4 03/27/2017 14:58:08 ( 22.67, 160.36) 03/27/2017 15:01:43 ( 10.05, 157.36)
5 03/28/2017 02:09:59 ( 19.78, 165.59) 03/28/2017 02:10:48 ( 22.65, 164.88)
6 03/28/2017 03:48:43 ( 10.04, 142.51) 03/28/2017 03:52:18 ( 22.66, 139.50)
7 03/28/2017 14:39:06 ( 22.65, 165.12) 03/28/2017 14:42:41 ( 10.03, 162.11)
8 03/28/2017 16:20:36 ( 22.64, 139.74) 03/28/2017 16:20:52 ( 21.71, 139.50)
9 03/29/2017 03:29:41 ( 10.06, 147.26) 03/29/2017 03:33:16 ( 22.68, 144.26)
10 03/29/2017 16:01:32 ( 22.69, 144.51) 03/29/2017 16:05:08 ( 10.01, 141.50)
11 03/30/2017 03:10:37 ( 10.01, 152.04) 03/30/2017 03:14:13 ( 22.70, 149.02)
12 03/30/2017 15:42:30 ( 22.67, 149.27) 03/30/2017 15:46:05 ( 10.05, 146.27)
13 03/31/2017 02:51:35 ( 10.03, 156.79) 03/31/2017 02:55:10 ( 22.65, 153.79)
14 03/31/2017 15:23:28 ( 22.66, 154.03) 03/31/2017 15:27:03 ( 10.04, 151.02)
15 04/01/2017 02:32:32 ( 10.04, 161.55) 04/01/2017 02:36:07 ( 22.67, 158.55)
16 04/01/2017 15:04:25 ( 22.64, 158.78) 04/01/2017 15:08:00 ( 10.02, 155.78)
17 04/02/2017 02:14:23 ( 13.18, 165.59) 04/02/2017 02:17:05 ( 22.69, 163.30)
18 04/02/2017 03:54:59 ( 10.01, 140.95) 04/02/2017 03:56:44 ( 16.18, 139.51)
19 04/02/2017 14:45:22 ( 22.69, 163.56) 04/02/2017 14:48:58 ( 10.01, 160.54)
20 04/03/2017 03:35:56 ( 10.03, 145.70) 04/03/2017 03:39:31 ( 22.65, 142.70)
21 04/03/2017 14:29:33 ( 11.29, 165.59) 04/03/2017 14:29:54 ( 10.05, 165.31)
22 04/03/2017 16:07:49 ( 22.66, 142.94) 04/03/2017 16:11:24 ( 10.04, 139.93)
23 04/04/2017 03:16:54 ( 10.05, 150.46) 04/04/2017 03:20:29 ( 22.67, 147.46)
24 04/04/2017 15:48:47 ( 22.65, 147.69) 04/04/2017 15:52:22 ( 10.03, 144.69)
25 04/05/2017 02:57:50 ( 10.00, 155.23) 04/05/2017 03:01:26 ( 22.69, 152.21)
26 04/05/2017 15:29:43 ( 22.69, 152.47) 04/05/2017 15:33:19 ( 10.01, 149.45)
27 04/06/2017 02:38:48 ( 10.02, 159.99) 04/06/2017 02:42:23 ( 22.65, 156.99)
28 04/06/2017 15:10:41 ( 22.67, 157.22) 04/06/2017 15:14:16 ( 10.05, 154.22)
29 04/07/2017 02:19:46 ( 10.04, 164.75) 04/07/2017 02:23:21 ( 22.66, 161.74)
30 04/07/2017 14:51:38 ( 22.66, 161.98) 04/07/2017 14:55:13 ( 10.04, 158.98)
31 04/08/2017 03:42:12 ( 10.01, 144.14) 04/08/2017 03:45:48 ( 22.69, 141.12)
32 04/08/2017 14:33:56 ( 17.95, 165.59) 04/08/2017 14:36:11 ( 10.02, 163.74)


NCC Satellite Cal/Val Overpasses Prediction Service
